| time (UTC) | temp C | wind direction | speed KPH | gust KPH | rain 1hr cm | rain 24hr cm | rain mn cm | humidity % | barometer mb |
| 20260903191549 | 11 | 293 | 0.0 | 0.0 | 0.00 | 0.00 | 0.25 | 92 | 1010.7 |
| 20260903190047 | 11 | 293 | 4.8 | 0.0 | 0.00 | 0.00 | 0.25 | 92 | 1010.9 |
| 20260903184528 | 11 | 293 | 1.6 | 0.0 | 0.00 | 0.00 | 0.25 | 92 | 1011.0 |
| 20260903183031 | 11 | 293 | 0.0 | 0.0 | 0.00 | 0.00 | 0.25 | 93 | 1011.1 |
| 20260903181516 | 11 | 293 | 0.0 | 0.0 | 0.00 | 0.00 | 0.25 | 93 | 1011.0 |
| 20260903180024 | 11 | 293 | 0.0 | 0.0 | 0.00 | 0.00 | 0.25 | 94 | 1011.0 |
| 20260903174513 | 11 | 293 | 1.6 | 0.0 | 0.00 | 0.00 | 0.25 | 94 | 1010.9 |
| 20260903173012 | 11 | 292 | 0.0 | 0.0 | 0.00 | 0.00 | 0.25 | 94 | 1010.7 |
| 20260903171509 | 11 | 292 | 0.0 | 0.0 | 0.00 | 0.00 | 0.25 | 94 | 1010.8 |
| 20260903170012 | 10 | 292 | 0.0 | 0.0 | 0.00 | 0.00 | 0.23 | 94 | 1010.8 |
| 20260903164507 | 10 | 292 | 0.0 | 0.0 | 0.00 | 0.00 | 0.20 | 94 | 1010.7 |
| 20260903163007 | 10 | 292 | 1.6 | 0.0 | 0.00 | 0.00 | 0.20 | 94 | 1010.8 |
| 20260903161549 | 10 | 292 | 1.6 | 0.0 | 0.00 | 0.00 | 0.18 | 94 | 1010.6 |
| 20260903160049 | 10 | 292 | 0.0 | 0.0 | 0.00 | 0.00 | 0.15 | 94 | 1010.6 |
| 20260903154528 | 10 | 292 | 0.0 | 0.0 | 0.00 | 0.00 | 0.13 | 93 | 1010.4 |
| 20260903153026 | 10 | 292 | 0.0 | 0.0 | 0.00 | 0.00 | 0.13 | 94 | 1010.4 |
| 20260903151510 | 10 | 292 | 0.0 | 0.0 | 0.00 | 0.00 | 0.10 | 94 | 1010.3 |
| 20260903150014 | 10 | 292 | 0.0 | 0.0 | 0.00 | 0.00 | 0.08 | 93 | 1010.4 |
| 20260903144552 | 10 | 292 | 0.0 | 0.0 | 0.00 | 0.00 | 0.05 | 94 | 1010.2 |
| 20260903143048 | 10 | 292 | 0.0 | 0.0 | 0.00 | 0.00 | 0.03 | 93 | 1010.1 |
| 20260903141534 | 10 | 292 | 0.0 | 0.0 | 0.00 | 0.00 | 0.00 | 93 | 1009.9 |
| 20260903140033 | 10 | 292 | 0.0 | 0.0 | 0.00 | 0.00 | 1.45 | 93 | 1009.7 |
| 20260903134532 | 10 | 292 | 0.0 | 0.0 | 0.00 | 0.00 | 1.42 | 93 | 1009.5 |
| 20260903133035 | 10 | 292 | 0.0 | 0.0 | 0.00 | 0.00 | 1.42 | 93 | 1009.5 |
| 20260903131531 | 10 | 292 | 0.0 | 0.0 | 0.00 | 0.00 | 1.37 | 93 | 1009.4 |
| 20260903130031 | 10 | 292 | 0.0 | 0.0 | 0.00 | 0.00 | 1.35 | 93 | 1009.1 |
| 20260903124530 | 10 | 292 | 0.0 | 0.0 | 0.00 | 0.00 | 1.32 | 93 | 1009.1 |
| 20260903123030 | 10 | 292 | 0.0 | 0.0 | 0.00 | 0.00 | 1.30 | 92 | 1008.9 |
| 20260903121522 | 10 | 292 | 0.0 | 0.0 | 0.00 | 0.00 | 1.27 | 92 | 1009.0 |
| 20260903120011 | 10 | 292 | 0.0 | 0.0 | 0.00 | 0.00 | 1.24 | 92 | 1008.8 |
| 20260903114602 | 10 | 292 | 0.0 | 0.0 | 0.00 | 0.00 | 1.22 | 92 | 1008.7 |
| 20260903113051 | 10 | 292 | 0.0 | 0.0 | 0.00 | 0.00 | 1.19 | 92 | 1008.8 |
| 20260903111534 | 10 | 292 | 0.0 | 0.0 | 0.00 | 0.00 | 1.19 | 92 | 1008.8 |
| 20260903110033 | 10 | 292 | 0.0 | 0.0 | 0.00 | 0.00 | 1.17 | 92 | 1008.7 |
| 20260903104514 | 10 | 292 | 0.0 | 0.0 | 0.00 | 0.00 | 1.14 | 91 | 1008.7 |
| 20260903103018 | 10 | 292 | 0.0 | 0.0 | 0.00 | 0.00 | 1.14 | 91 | 1008.4 |
| 20260903101507 | 10 | 292 | 1.6 | 0.0 | 0.00 | 0.00 | 1.14 | 91 | 1008.4 |
| 20260903100001 | 11 | 292 | 3.2 | 0.0 | 0.00 | 0.00 | 1.12 | 90 | 1008.3 |
| 20260903094545 | 11 | 292 | 4.8 | 0.0 | 0.00 | 0.00 | 1.12 | 89 | 1008.2 |
| 20260903093044 | 11 | 292 | 3.2 | 0.0 | 0.00 | 0.00 | 1.09 | 88 | 1008.3 |
| 20260903091526 | 11 | 292 | 0.0 | 0.0 | 0.00 | 0.00 | 1.09 | 88 | 1008.3 |
| 20260903090026 | 11 | 292 | 0.0 | 0.0 | 0.00 | 0.00 | 1.09 | 87 | 1008.3 |
| 20260903084508 | 11 | 292 | 0.0 | 0.0 | 0.00 | 0.00 | 1.07 | 86 | 1008.0 |
| 20260903083010 | 11 | 292 | 0.0 | 0.0 | 0.00 | 0.00 | 1.07 | 86 | 1007.9 |
| 20260903081550 | 11 | 292 | 0.0 | 0.0 | 0.00 | 0.00 | 1.07 | 85 | 1008.0 |
| 20260903080115 | 12 | 292 | 0.0 | 0.0 | 0.00 | 0.00 | 1.07 | 84 | 1008.0 |
| 20260903074531 | 12 | 292 | 0.0 | 0.0 | 0.00 | 0.00 | 1.07 | 84 | 1008.1 |
| 20260903073034 | 12 | 292 | 0.0 | 0.0 | 0.00 | 0.00 | 1.07 | 83 | 1008.3 |
| 20260903071520 | 12 | 292 | 0.0 | 0.0 | 0.00 | 0.00 | 1.07 | 83 | 1008.0 |
| 20260903070017 | 12 | 292 | 0.0 | 0.0 | 0.00 | 0.00 | 1.07 | 83 | 1007.7 |
| 20260903064555 | 12 | 292 | 0.0 | 0.0 | 0.00 | 0.00 | 1.07 | 82 | 1007.6 |
| 20260903063105 | 12 | 292 | 1.6 | 0.0 | 0.00 | 0.00 | 1.07 | 82 | 1007.7 |
| 20260903061555 | 12 | 292 | 0.0 | 0.0 | 0.00 | 0.00 | 1.07 | 81 | 1007.7 |
| 20260903060038 | 12 | 292 | 3.2 | 0.0 | 0.00 | 0.00 | 1.07 | 81 | 1007.8 |
| 20260903054520 | 13 | 298 | 8.0 | 0.0 | 0.00 | 0.00 | 1.07 | 81 | 1007.5 |
| 20260903053019 | 13 | 292 | 8.0 | 0.0 | 0.00 | 0.00 | 1.07 | 80 | 1007.4 |
| 20260903051501 | 13 | 290 | 8.0 | 0.0 | 0.00 | 0.00 | 1.07 | 79 | 1007.2 |
| 20260903050002 | 13 | 286 | 14.5 | 0.0 | 0.00 | 0.00 | 1.07 | 77 | 1006.9 |
| 20260903044551 | 14 | 286 | 14.5 | 0.0 | 0.00 | 0.00 | 1.07 | 76 | 1006.5 |
| 20260903043043 | 15 | 279 | 16.1 | 0.0 | 0.00 | 0.00 | 1.07 | 73 | 1006.7 |
| 20260903041532 | 16 | 277 | 14.5 | 0.0 | 0.00 | 0.00 | 1.07 | 71 | 1006.4 |
| 20260903040026 | 16 | 294 | 11.3 | 0.0 | 0.00 | 0.00 | 1.07 | 74 | 1006.0 |
| 20260903034508 | 16 | 304 | 9.7 | 0.0 | 0.00 | 0.00 | 1.07 | 76 | 1005.5 |
| 20260903033014 | 16 | 296 | 6.4 | 0.0 | 0.00 | 0.00 | 1.07 | 76 | 1005.6 |
| 20260903031550 | 16 | 46 | 0.0 | 0.0 | 0.00 | 0.00 | 1.07 | 75 | 1005.3 |
| 20260903030049 | 16 | 46 | 0.0 | 0.0 | 0.00 | 0.00 | 1.07 | 72 | 1004.9 |
| 20260903024531 | 17 | 46 | 0.0 | 0.0 | 0.00 | 0.00 | 1.07 | 70 | 1004.8 |
| 20260903023034 | 17 | 46 | 0.0 | 0.0 | 0.00 | 0.00 | 1.07 | 67 | 1004.7 |
| 20260903021516 | 18 | 46 | 1.6 | 0.0 | 0.00 | 0.00 | 1.07 | 65 | 1004.9 |
| 20260903020030 | 18 | 46 | 0.0 | 0.0 | 0.00 | 0.00 | 1.07 | 63 | 1004.9 |
| 20260903014613 | 19 | 46 | 0.0 | 0.0 | 0.00 | 0.00 | 1.07 | 61 | 1005.0 |
| 20260903013102 | 20 | 46 | 0.0 | 0.0 | 0.00 | 0.00 | 1.07 | 58 | 1004.9 |
| 20260903011550 | 20 | 46 | 0.0 | 0.0 | 0.00 | 0.00 | 1.07 | 55 | 1004.8 |
| 20260903010049 | 21 | 46 | 0.0 | 0.0 | 0.00 | 0.00 | 1.07 | 52 | 1004.9 |
| 20260903004519 | 21 | 46 | 0.0 | 0.0 | 0.00 | 0.00 | 1.07 | 51 | 1004.9 |
| 20260903003017 | 21 | 46 | 1.6 | 0.0 | 0.00 | 0.00 | 1.07 | 52 | 1004.9 |
| 20260903001602 | 21 | 46 | 0.0 | 0.0 | 0.00 | 0.00 | 1.07 | 51 | 1004.8 |
| 20260903000057 | 21 | 34 | 1.6 | 0.0 | 0.00 | 0.00 | 1.07 | 53 | 1005.0 |
| 20260902234542 | 21 | 56 | 1.6 | 0.0 | 0.00 | 0.00 | 1.07 | 54 | 1005.1 |
| 20260902233038 | 21 | 56 | 3.2 | 0.0 | 0.00 | 0.00 | 1.07 | 55 | 1005.4 |
| 20260902231539 | 21 | 55 | 1.6 | 0.0 | 0.00 | 0.00 | 1.04 | 55 | 1005.5 |
| 20260902230021 | 20 | 55 | 1.6 | 0.0 | 0.00 | 0.00 | 1.04 | 57 | 1005.7 |
| 20260902224518 | 20 | 61 | 3.2 | 0.0 | 0.00 | 0.00 | 1.04 | 58 | 1005.8 |
| 20260902223027 | 20 | 65 | 1.6 | 0.0 | 0.00 | 0.00 | 1.04 | 59 | 1006.0 |
| 20260902221519 | 20 | 65 | 1.6 | 0.0 | 0.00 | 0.00 | 1.04 | 61 | 1006.2 |
| 20260902220009 | 19 | 65 | 1.6 | 0.0 | 0.00 | 0.00 | 1.04 | 62 | 1006.4 |
| 20260902214516 | 18 | 65 | 3.2 | 0.0 | 0.00 | 0.00 | 1.04 | 65 | 1006.6 |
| 20260902213008 | 18 | 65 | 4.8 | 0.0 | 0.00 | 0.00 | 1.04 | 66 | 1006.8 |
| 20260902211544 | 17 | 70 | 3.2 | 0.0 | 0.00 | 0.00 | 1.04 | 68 | 1007.0 |
| 20260902210042 | 17 | 85 | 6.4 | 0.0 | 0.00 | 0.00 | 1.04 | 68 | 1007.2 |
| 20260902204525 | 16 | 68 | 3.2 | 0.0 | 0.00 | 0.00 | 1.04 | 73 | 1007.2 |
| 20260902203024 | 16 | 76 | 4.8 | 0.0 | 0.00 | 0.00 | 1.04 | 75 | 1007.4 |
| 20260902201503 | 15 | 88 | 1.6 | 0.0 | 0.00 | 0.00 | 0.99 | 82 | 1007.6 |
| 20260902200003 | 14 | 90 | 1.6 | 0.0 | 0.00 | 0.00 | 0.97 | 88 | 1007.8 |
| 20260902194600 | 13 | 94 | 3.2 | 0.0 | 0.00 | 0.00 | 0.94 | 92 | 1007.9 |
| 20260902193044 | 12 | 101 | 4.8 | 0.0 | 0.00 | 0.00 | 0.89 | 92 | 1008.3 |